• In Belgien
  • Länderverzeichnis
  • Für 7 Tage
  • Wassertemperatur
  • Satellitenkarten
  • Wetterkarte
  • Widgets
  • user-avatar
    Anmelden

    Stündliche Wetter Julara

    Heute, 23 Januar, Dienstag

    Zeit Temperatur Niederschläge Wind Luftdruck Luftfeuchtigkeit
    00:00 +36°C° 0 mm 5 m/S 712 mmHg 15%
    01:00 +36°C° 0 mm 6 m/S 712 mmHg 18%
    02:00 +35°C° 0 mm 7 m/S 712 mmHg 21%
    03:00 +34°C° 0 mm 9 m/S 712 mmHg 24%
    04:00 +34°C° 0 mm 8 m/S 712 mmHg 25%
    05:00 +33°C° 0 mm 7 m/S 713 mmHg 26%
    06:00 +32°C° 0 mm 7 m/S 713 mmHg 27%
    07:00 +34°C° 0 mm 7 m/S 713 mmHg 25%
    08:00 +37°C° 0 mm 8 m/S 713 mmHg 23%
    09:00 +38°C° 0 mm 8 m/S 714 mmHg 21%
    10:00 +40°C° 0 mm 7 m/S 713 mmHg 18%
    11:00 +42°C° 0 mm 6 m/S 713 mmHg 16%
    12:00 +43°C° 0 mm 5 m/S 713 mmHg 14%
    13:00 +45°C° 0 mm 5 m/S 712 mmHg 12%
    14:00 +46°C° 0 mm 5 m/S 712 mmHg 11%
    15:00 +47°C° 0 mm 6 m/S 711 mmHg 10%
    16:00 +46°C° 0 mm 6 m/S 711 mmHg 10%
    17:00 +46°C° 0 mm 6 m/S 711 mmHg 11%
    18:00 +45°C° 0 mm 7 m/S 711 mmHg 11%
    19:00 +44°C° 0 mm 7 m/S 711 mmHg 12%
    20:00 +44°C° 0 mm 7 m/S 711 mmHg 13%
    21:00 +43°C° 0 mm 7 m/S 711 mmHg 13%
    22:00 +41°C° 0 mm 7 m/S 711 mmHg 15%
    23:00 +40°C° 0 mm 7 m/S 711 mmHg 16%

    Morgen, 24 Januar, Mittwoch

    Zeit Temperatur Niederschläge Wind Luftdruck Luftfeuchtigkeit
    00:00 +40°C° 0 mm 7 m/S 711 mmHg 17%
    01:00 +39°C° 0 mm 7 m/S 711 mmHg 19%
    02:00 +38°C° 0 mm 6 m/S 711 mmHg 20%
    03:00 +36°C° 0 mm 6 m/S 710 mmHg 22%
    04:00 +35°C° 0 mm 5 m/S 711 mmHg 23%
    05:00 +34°C° 0 mm 4 m/S 711 mmHg 25%
    06:00 +33°C° 0 mm 4 m/S 711 mmHg 26%
    07:00 +35°C° 0 mm 5 m/S 712 mmHg 24%
    08:00 +38°C° 0 mm 6 m/S 712 mmHg 22%
    09:00 +40°C° 0 mm 8 m/S 712 mmHg 19%
    10:00 +41°C° 0 mm 7 m/S 712 mmHg 17%
    11:00 +44°C° 0 mm 6 m/S 711 mmHg 15%
    12:00 +45°C° 0 mm 6 m/S 711 mmHg 13%
    13:00 +46°C° 0 mm 5 m/S 710 mmHg 12%
    14:00 +46°C° 0 mm 5 m/S 710 mmHg 12%
    15:00 +47°C° 0 mm 5 m/S 709 mmHg 11%
    16:00 +46°C° 0 mm 5 m/S 709 mmHg 11%
    17:00 +46°C° 0 mm 5 m/S 709 mmHg 11%
    18:00 +45°C° 0 mm 6 m/S 708 mmHg 11%
    19:00 +45°C° 0 mm 6 m/S 709 mmHg 12%
    20:00 +44°C° 0 mm 6 m/S 709 mmHg 13%
    21:00 +42°C° 0 mm 6 m/S 710 mmHg 13%
    22:00 +42°C° 0 mm 6 m/S 710 mmHg 14%
    23:00 +41°C° 0 mm 6 m/S 710 mmHg 15%

    übermorgen, 25 Januar, Donnerstag

    Zeit Temperatur Niederschläge Wind Luftdruck Luftfeuchtigkeit
    00:00 +40°C° 0 mm 6 m/S 710 mmHg 15%
    01:00 +39°C° 0 mm 6 m/S 709 mmHg 16%
    02:00 +37°C° 0 mm 5 m/S 709 mmHg 17%
    03:00 +36°C° 0 mm 5 m/S 709 mmHg 18%
    04:00 +35°C° 0 mm 4 m/S 709 mmHg 20%
    05:00 +34°C° 0 mm 3 m/S 710 mmHg 22%
    06:00 +32°C° 0 mm 2 m/S 710 mmHg 23%
    07:00 +35°C° 0 mm 3 m/S 710 mmHg 22%
    08:00 +37°C° 0 mm 3 m/S 711 mmHg 20%
    09:00 +39°C° 0 mm 3 m/S 711 mmHg 19%
    10:00 +41°C° 0 mm 4 m/S 711 mmHg 17%
    11:00 +43°C° 0 mm 5 m/S 711 mmHg 16%
    12:00 +45°C° 0 mm 5 m/S 710 mmHg 15%
    13:00 +46°C° 0 mm 5 m/S 710 mmHg 14%
    14:00 +46°C° 0 mm 5 m/S 709 mmHg 13%
    15:00 +47°C° 0 mm 5 m/S 708 mmHg 12%
    16:00 +46°C° 0 mm 5 m/S 709 mmHg 12%
    17:00 +46°C° 0 mm 5 m/S 709 mmHg 12%
    18:00 +46°C° 0 mm 5 m/S 709 mmHg 13%
    19:00 +44°C° 0 mm 4 m/S 709 mmHg 14%
    20:00 +43°C° 0 mm 4 m/S 709 mmHg 15%
    21:00 +42°C° 0 mm 4 m/S 710 mmHg 16%
    22:00 +41°C° 0 mm 4 m/S 710 mmHg 17%
    23:00 +41°C° 0 mm 5 m/S 710 mmHg 18%

    26 Januar, Freitag

    Zeit Temperatur Niederschläge Wind Luftdruck Luftfeuchtigkeit
    00:00 +40°C° 0 mm 5 m/S 710 mmHg 20%
    01:00 +39°C° 0 mm 5 m/S 709 mmHg 22%
    02:00 +37°C° 0 mm 4 m/S 709 mmHg 23%
    03:00 +36°C° 0 mm 3 m/S 709 mmHg 25%
    04:00 +35°C° 0 mm 3 m/S 709 mmHg 26%
    05:00 +35°C° 0 mm 2 m/S 710 mmHg 28%
    06:00 +33°C° 0 mm 1 m/S 710 mmHg 29%
    07:00 +36°C° 0 mm 2 m/S 710 mmHg 26%
    08:00 +38°C° 0 mm 2 m/S 711 mmHg 23%
    09:00 +40°C° 0 mm 2 m/S 712 mmHg 20%
    10:00 +42°C° 0 mm 4 m/S 711 mmHg 18%
    11:00 +45°C° 0 mm 5 m/S 711 mmHg 16%
    12:00 +46°C° 0 mm 7 m/S 711 mmHg 15%
    13:00 +46°C° 0 mm 7 m/S 710 mmHg 14%
    14:00 +46°C° 0 mm 7 m/S 709 mmHg 13%
    15:00 +47°C° 0 mm 7 m/S 708 mmHg 13%
    16:00 +46°C° 0 mm 7 m/S 709 mmHg 13%
    17:00 +46°C° 0 mm 6 m/S 709 mmHg 14%
    18:00 +45°C° 0 mm 6 m/S 709 mmHg 14%
    19:00 +43°C° 0 mm 5 m/S 709 mmHg 15%
    20:00 +43°C° 0 mm 5 m/S 709 mmHg 16%
    21:00 +42°C° 0 mm 5 m/S 710 mmHg 17%
    22:00 +41°C° 0,1 mm 5 m/S 710 mmHg 19%
    23:00 +40°C° 0,1 mm 5 m/S 710 mmHg 20%

    27 Januar, Samstag

    Zeit Temperatur Niederschläge Wind Luftdruck Luftfeuchtigkeit
    00:00 +40°C° 0,1 mm 5 m/S 710 mmHg 22%
    01:00 +38°C° 0 mm 4 m/S 710 mmHg 23%
    02:00 +37°C° 0 mm 4 m/S 709 mmHg 25%
    03:00 +36°C° 0 mm 3 m/S 709 mmHg 26%
    04:00 +36°C° 0 mm 3 m/S 709 mmHg 28%
    05:00 +35°C° 0 mm 2 m/S 709 mmHg 30%
    06:00 +34°C° 0 mm 2 m/S 710 mmHg 31%
    07:00 +36°C° 0 mm 2 m/S 710 mmHg 30%
    08:00 +37°C° 0 mm 2 m/S 711 mmHg 28%
    09:00 +39°C° 0 mm 2 m/S 711 mmHg 26%
    10:00 +42°C° 0 mm 4 m/S 711 mmHg 23%
    11:00 +43°C° 0 mm 5 m/S 710 mmHg 20%
    12:00 +46°C° 0 mm 7 m/S 710 mmHg 17%
    13:00 +46°C° 0 mm 7 m/S 709 mmHg 16%
    14:00 +46°C° 0 mm 7 m/S 709 mmHg 16%
    15:00 +46°C° 0 mm 7 m/S 708 mmHg 15%
    16:00 +46°C° 0 mm 7 m/S 708 mmHg 15%
    17:00 +46°C° 0 mm 7 m/S 708 mmHg 15%
    18:00 +45°C° 0 mm 7 m/S 708 mmHg 15%
    19:00 +44°C° 0 mm 7 m/S 708 mmHg 16%
    20:00 +43°C° 0 mm 7 m/S 709 mmHg 17%
    21:00 +41°C° 0 mm 6 m/S 709 mmHg 18%
    22:00 +41°C° 0 mm 6 m/S 709 mmHg 18%
    23:00 +40°C° 0 mm 6 m/S 709 mmHg 19%

    28 Januar, Sonntag

    Zeit Temperatur Niederschläge Wind Luftdruck Luftfeuchtigkeit
    00:00 +39°C° 0 mm 6 m/S 709 mmHg 20%
    01:00 +39°C° 0 mm 6 m/S 709 mmHg 21%
    02:00 +38°C° 0 mm 6 m/S 708 mmHg 22%
    03:00 +38°C° 0 mm 6 m/S 708 mmHg 23%
    04:00 +36°C° 0 mm 5 m/S 709 mmHg 26%
    05:00 +35°C° 0 mm 4 m/S 709 mmHg 29%
    06:00 +34°C° 0 mm 3 m/S 709 mmHg 32%
    07:00 +36°C° 0 mm 4 m/S 710 mmHg 28%
    08:00 +39°C° 0 mm 5 m/S 710 mmHg 25%
    09:00 +41°C° 0 mm 6 m/S 711 mmHg 22%
    10:00 +42°C° 0 mm 6 m/S 710 mmHg 20%
    11:00 +44°C° 0 mm 6 m/S 710 mmHg 17%
    12:00 +45°C° 0 mm 6 m/S 709 mmHg 15%
    13:00 +46°C° 0 mm 6 m/S 709 mmHg 14%
    14:00 +47°C° 0 mm 6 m/S 708 mmHg 13%
    15:00 +47°C° 0 mm 6 m/S 707 mmHg 12%
    16:00 +47°C° 0 mm 6 m/S 707 mmHg 13%
    17:00 +46°C° 0 mm 5 m/S 708 mmHg 13%
    18:00 +45°C° 0 mm 5 m/S 708 mmHg 13%
    19:00 +45°C° 0 mm 5 m/S 708 mmHg 14%
    20:00 +43°C° 0 mm 5 m/S 708 mmHg 15%
    21:00 +42°C° 0 mm 5 m/S 708 mmHg 15%
    22:00 +41°C° 0 mm 5 m/S 708 mmHg 16%
    23:00 +41°C° 0 mm 6 m/S 708 mmHg 16%
    Mehr zeigen